Flag for Senegal Weather past 2 weeks in Thiès, Senegal

Now
64 °F

Clear.


Feels Like: 64 °F
Forecast: 65 / 100 °F
Wind: 12 mph from North

Location: Dakar / Yoff

Current Time: Mar 27, 2015 at 7:05:31 AM

Latest Report: Mar 27, 2015 at 6:30 AM


Visibility: 10 mi

Pressure: 29.95 "Hg

Humidity: 83%

Dew point: 59 °F

Location of ThièsLocation

Historic Weather in Thiès — Graph

°F

Thiès temperature yesterday

Maximum temperature yesterday: 77 °F (at 2:30 PM)
Minimum temperature yesterday: 64 °F (at 1:30 AM)
Average temperature yesterday: 69 °F

Past Weeks' High & Low Weather Summary

 TemperatureHumidityPressure
High86 °F (Mar 13, 12:00 PM)100% (Mar 24, 2:30 PM)32.78 "Hg (Mar 24, 2:30 PM)
Low50 °F (Mar 24, 2:30 PM)29% (Mar 13, 1:30 PM)29.71 "Hg (Mar 13, 3:00 PM)
Average69 °F74%29.88 "Hg
* Reported Mar 12 6:00 AM — Mar 27 6:00 AM, Thiès, Weather by CustomWeather, © 2015

Note: Actual official high and low records may vary slightly from our data, if they occured in-between our weather recording intervals... More about our weather records

Advertising

Thiès weather history for previous 24 hours

 ConditionsComfort  
Time TempWeatherWind HumidityBarometerVisibility
6:00 AM
Fri, Mar 27
64 °FClear.9 mph83%29.92 "Hg10 mi
5:30 AM64 °FClear.9 mph83%29.92 "Hg10 mi
5:00 AM64 °FClear.12 mph83%29.92 "Hg10 mi
4:30 AM64 °FClear.12 mph83%29.92 "Hg10 mi
4:00 AM64 °FClear.12 mph83%29.92 "Hg10 mi
3:00 AM66 °FClear.13 mph78%29.92 "Hg10 mi
2:30 AM66 °FClear.14 mph78%29.95 "Hg10 mi
2:00 AM66 °FClear.14 mph73%29.95 "Hg10 mi
1:30 AM66 °FClear.13 mph73%29.95 "Hg10 mi
1:00 AM66 °FClear.13 mph73%29.95 "Hg10 mi
12:30 AM66 °FClear.13 mph73%29.95 "Hg10 mi
12:00 AM68 °FClear.13 mph69%29.95 "Hg10 mi
11:30 PM
Thu, Mar 26
68 °FClear.12 mph69%29.95 "Hg10 mi
11:00 PM68 °FClear.13 mph69%29.95 "Hg10 mi
10:30 PM68 °FClear.15 mph69%29.95 "Hg10 mi
10:00 PM68 °FClear.14 mph69%29.95 "Hg10 mi
9:30 PM68 °FClear.13 mph69%29.95 "Hg10 mi
9:00 PM68 °FClear.13 mph69%29.92 "Hg10 mi
8:30 PM68 °FClear.13 mph69%29.92 "Hg10 mi
8:00 PM68 °FClear.13 mph69%29.92 "Hg10 mi
7:30 PM70 °FClear.13 mph64%29.89 "Hg10 mi
7:00 PM70 °FSunny.14 mph64%29.89 "Hg10 mi
6:30 PM72 °FSunny.16 mph61%29.89 "Hg10 mi
6:00 PM73 °FClear.16 mph57%29.89 "Hg6 mi
5:30 PM73 °FClear.17 mph53%29.86 "Hg6 mi
5:00 PM75 °FClear.16 mph47%29.86 "Hg6 mi
4:30 PM75 °FClear.17 mph47%29.86 "Hg6 mi
4:00 PM77 °FClear.15 mph42%29.86 "Hg6 mi
3:30 PM77 °FClear.16 mph42%29.86 "Hg6 mi
3:00 PM77 °FSunny.15 mph36%29.86 "Hg10 mi
2:30 PM77 °FSunny.16 mph36%29.89 "Hg10 mi
2:00 PM75 °FSunny.15 mph41%29.89 "Hg10 mi
1:30 PM73 °FSunny.15 mph41%29.89 "Hg10 mi
1:00 PM75 °FSunny.14 mph39%29.92 "Hg10 mi
12:30 PM75 °FSunny.13 mph39%29.92 "Hg10 mi
12:00 PM72 °FSunny.13 mph47%29.95 "Hg10 mi
11:30 AM70 °FSunny.12 mph53%29.95 "Hg10 mi
11:00 AM72 °FSunny.10 mph53%29.95 "Hg10 mi
10:30 AM68 °FSunny.12 mph64%29.95 "Hg10 mi
10:00 AM70 °FSunny.13 mph57%29.95 "Hg10 mi
9:30 AM68 °FSunny.12 mph60%29.95 "Hg10 mi
9:00 AM68 °FPassing clouds.10 mph64%29.92 "HgN/A
8:30 AM66 °FSunny.12 mph68%29.92 "Hg10 mi
8:00 AM64 °FSunny.9 mph78%29.89 "Hg10 mi
7:30 AM64 °FSunny.9 mph78%29.89 "Hg10 mi
7:00 AM64 °FClear.12 mph78%29.89 "Hg10 mi
Weather by CustomWeather, © 2015

See weather overviewHow to use our weather pages